Weather Roundup
Issued by NWS

Home | Current Version | Previous Version | Graphics & Text | Print | Product List | Glossary Off
Versions: 1 2 3 4 5 6 7 8 9 10 11 12 13 14 15 16 17 18 19 20 21 22 23 24 25 26 27 28 29 30 31 32 33 34 35 36 37 38 39 40 41 42 43 44 45 46 47 48 49 50

423
NZUS93 KARX 240310
HRRWXR

CURRENT HOURLY OBSERVATIONS ACROSS
MUCH OF THE UPPER MISSISSIPPI VALLEY
NATIONAL WEATHER SERVICE LA CROSSE WI
1000 PM CDT THU MAR 23 2017


...SOUTHEAST MINNESOTA...


CITY           SKY/WX    TMP DP  RH WIND       PRES   REMARKS
ROCHESTER      CLOUDY    36  35  96 SE14      29.83S WCI  27
ROCHESTER/MAYO FAIR      37  36  94 SE10      29.83S WCI  30
WINONA         CLOUDY    39  34  81 SE9       29.87F WCI  33
AUSTIN         CLOUDY    39  36  87 E7        29.82F WCI  34
ALBERT LEA     CLOUDY    39  37  93 SE16      29.79R WCI  30
DODGE CENTER   CLOUDY    37  36  93 SE14      29.81S WCI  29
PRESTON        LGT RAIN  37  34  88 E9        29.84F WCI  31
OWATONNA       CLOUDY    39  36  87 SE14      29.80R WCI  31
FARIBAULT      CLOUDY    41  37  87 SE10      29.81R
$$

...ELSEWHERE IN MINNESOTA...


CITY           SKY/WX    TMP DP  RH WIND       PRES   REMARKS
MINNEAPOLIS    RAIN      39  35  86 SE8       29.84R FOG     WCI  33
INTNL FALLS    CLOUDY    33  31  92 CALM      29.86R
DULUTH         FRZ RAIN  32  31  96 SE6       29.87S FOG     WCI  26
RED WING       CLOUDY    41  34  75 SE7       29.83F
REDWOOD FALLS  LGT RAIN  38  35  89 E6        29.79R FOG     WCI  33
MANKATO        CLOUDY    40  37  89 SE12      29.80  WCI  33
WORTHINGTON    CLOUDY    40  36  86 E7        29.74R
FAIRMONT       CLOUDY    39  36  89 SE12      29.76F WCI  32
$$

...SOUTHWEST WISCONSIN...


CITY           SKY/WX    TMP DP  RH WIND       PRES   REMARKS
LA CROSSE      CLOUDY    40  35  83 NE3       29.93S
PRAIRIE DU CHI LGT RAIN  40  33  75 SE13G20   29.90F WCI  33
BOSCOBEL       LGT RAIN  42  34  73 VRB5G18   29.92F
LONE ROCK      CLOUDY    41  33  73 SE9       29.95F
PLATTEVILLE    CLOUDY    40  33  74 SE10      29.97R WCI  34
FORT MC COY    CLOUDY    38  36  91 NE6       29.93F WCI  34
CAMP DOUGLAS   MOCLDY    39  32  75 CALM      29.95R
MAUSTON-NEW LI DRIZZLE   38  35  86 S3        29.92R
VIROQUA        MOCLDY    37  35  92 SE13G29   29.84F WCI  29
WIS DELLS      MOCLDY    39  32  76 S24G31    29.89F WCI  29
$$

...ELSEWHERE IN WISCONSIN...


CITY           SKY/WX    TMP DP  RH WIND       PRES   REMARKS
MILWAUKEE      LGT RAIN  41  37  86 S12       29.98F
MADISON        CLOUDY    41  33  73 S17       29.96S
GREEN BAY      CLOUDY    37  32  82 SE13      29.96F WCI  29
EAU CLAIRE     CLOUDY    41  33  73 S9        29.86F
BLACK RVR FLS  FAIR      37  37  98 CALM      29.91F
MEDFORD        CLOUDY    36  27  72 S7        29.88F WCI  30
WAUSAU         CLOUDY    36  28  73 S8        29.90S WCI  30
WIS RAPIDS     CLOUDY    38  32  79 S8        29.94R WCI  32
MARSHFIELD     CLOUDY    37  30  75 S13       29.90S WCI  29
RICE LAKE      CLOUDY    37  35  91 CALM      29.88F FOG
$$

...NORTHEAST IOWA...


CITY           SKY/WX    TMP DP  RH WIND       PRES   REMARKS
WATERLOO       CLOUDY    40  36  86 E16       29.84F WCI  31
DUBUQUE        CLOUDY    40  32  73 E10       29.95R WCI  33
DECORAH        CLOUDY    39  36  87 S13G20    29.85R WCI  32
MASON CITY     CLOUDY    40  37  89 SE17G25   29.79F WCI  31
CHARLES CITY   CLOUDY    41  39  93 SE21      29.81F
OELWEIN        CLOUDY    39  37  93 SE20      29.87F WCI  30
$$

...ELSEWHERE IN IOWA...


CITY           SKY/WX    TMP DP  RH WIND       PRES   REMARKS
DES MOINES     MOCLDY    56  39  53 SE12      29.76F
IOWA CITY      PTCLDY    45  38  76 SE10      29.89F
FORT DODGE     MOCLDY    45  36  70 SE14      29.74R
MARSHALLTOWN   MOCLDY    46  39  76 SE17      29.78F
CEDAR RAPIDS   CLOUDY    42  38  85 E9        29.88R
$$

...NORTHERN ILLINOIS...


CITY           SKY/WX    TMP DP  RH WIND       PRES   REMARKS
CHICAGO-OHARE  CLOUDY    48  33  56 S9        30.03R
CHICAGO-MIDWAY CLOUDY    50  30  46 S10       30.03F
MOLINE         PTCLDY    43  37  79 SE8       29.93R
ROCKFORD       CLOUDY    43  32  65 SE13      30.01F
PEORIA         PTCLDY    46  38  73 S16       29.97F
$$

NOTE: "FAIR" INDICATES FEW OR NO CLOUDS BELOW 12,000 FEET WITH NO
SIGNIFICANT WEATHER AND/OR OBSTRUCTIONS TO VISIBILITY. WIND
SPEEDS ARE IN MILES-PER-HOUR.




USA.gov is the U.S. government's official web portal to all federal, state and local government web resources and services.